Time,TemperatureF,DewpointF,PressureIn,WindDirection,WindDirectionDegrees,WindSpeedMPH,WindSpeedGustMPH,Humidity,HourlyPrecipIn,Conditions,Clouds,dailyrainin,SoftwareType,DateUTC
2013-06-29 00:01:00,70.9,55.4,29.86,North,1,0.0,0.0,58,0.00,CLR,,0.00,WeatherDisplay:10.37,2013-06-29 05:01:00,
2013-06-29 00:06:00,70.9,55.4,29.86,North,1,0.0,0.0,58,0.00,CLR,,0.00,WeatherDisplay:10.37,2013-06-29 05:06:00,
2013-06-29 00:11:00,70.9,55.4,29.87,North,1,0.0,0.0,58,0.00,CLR,,0.00,WeatherDisplay:10.37,2013-06-29 05:11:00,
2013-06-29 00:16:00,70.7,55.2,29.87,North,1,0.0,0.0,58,0.00,CLR,,0.00,WeatherDisplay:10.37,2013-06-29 05:16:00,
2013-06-29 00:21:00,70.7,55.2,29.87,North,1,0.0,0.0,58,0.00,CLR,,0.00,WeatherDisplay:10.37,2013-06-29 05:21:00,
2013-06-29 00:26:00,70.5,55.0,29.87,North,1,0.0,0.0,58,0.00,CLR,,0.00,WeatherDisplay:10.37,2013-06-29 05:26:00,
2013-06-29 00:31:00,70.5,55.5,29.86,North,1,0.0,0.0,59,0.00,CLR,,0.00,WeatherDisplay:10.37,2013-06-29 05:31:00,
2013-06-29 00:36:00,70.5,55.5,29.86,North,1,0.0,0.0,59,0.00,CLR,,0.00,WeatherDisplay:10.37,2013-06-29 05:36:00,
2013-06-29 00:41:00,70.5,55.5,29.86,North,1,0.0,0.0,59,0.00,CLR,,0.00,WeatherDisplay:10.37,2013-06-29 05:41:00,
2013-06-29 00:46:00,70.2,55.6,29.86,North,1,0.0,0.0,60,0.00,CLR,,0.00,WeatherDisplay:10.37,2013-06-29 05:46:00,
2013-06-29 00:51:00,70.0,55.5,29.86,North,1,0.0,0.0,60,0.00,CLR,,0.00,WeatherDisplay:10.37,2013-06-29 05:51:00,
2013-06-29 00:56:00,69.6,55.1,29.86,North,1,0.0,0.0,60,0.00,CLR,,0.00,WeatherDisplay:10.37,2013-06-29 05:56:00,
2013-06-29 01:01:00,69.6,55.1,29.86,North,1,0.0,0.0,60,0.00,CLR,,0.00,WeatherDisplay:10.37,2013-06-29 06:01:00,
2013-06-29 01:06:00,69.4,54.9,29.86,North,1,0.0,0.0,60,0.00,CLR,,0.00,WeatherDisplay:10.37,2013-06-29 06:06:00,
2013-06-29 01:11:00,69.3,55.2,29.86,North,1,0.0,0.0,61,0.00,CLR,,0.00,WeatherDisplay:10.37,2013-06-29 06:11:00,
2013-06-29 01:16:00,69.1,55.1,29.86,North,1,0.0,0.0,61,0.00,CLR,,0.00,WeatherDisplay:10.37,2013-06-29 06:16:00,
2013-06-29 01:21:00,69.1,55.1,29.86,North,1,0.0,0.0,61,0.00,CLR,,0.00,WeatherDisplay:10.37,2013-06-29 06:21:00,
2013-06-29 01:26:00,69.1,55.5,29.86,North,1,0.0,0.0,62,0.00,CLR,,0.00,WeatherDisplay:10.37,2013-06-29 06:26:00,
2013-06-29 01:31:00,69.1,55.5,29.86,North,1,0.0,0.0,62,0.00,CLR,,0.00,WeatherDisplay:10.37,2013-06-29 06:31:00,
2013-06-29 01:36:00,69.1,55.5,29.86,North,1,0.0,0.0,62,0.00,CLR,,0.00,WeatherDisplay:10.37,2013-06-29 06:36:00,
2013-06-29 01:41:00,68.9,55.3,29.86,North,1,0.0,0.0,62,0.00,CLR,,0.00,WeatherDisplay:10.37,2013-06-29 06:41:00,
2013-06-29 01:46:00,68.7,55.2,29.86,North,1,0.0,0.0,62,0.00,CLR,,0.00,WeatherDisplay:10.37,2013-06-29 06:46:00,
2013-06-29 01:51:00,68.5,55.0,29.86,North,1,0.0,0.0,62,0.00,CLR,,0.00,WeatherDisplay:10.37,2013-06-29 06:51:00,
2013-06-29 01:56:00,68.4,55.3,29.86,North,1,0.0,0.0,63,0.00,CLR,,0.00,WeatherDisplay:10.37,2013-06-29 06:56:00,
2013-06-29 02:01:00,68.2,55.1,29.86,North,1,0.0,0.0,63,0.00,CLR,,0.00,WeatherDisplay:10.37,2013-06-29 07:01:00,
2013-06-29 02:06:00,68.2,55.1,29.86,North,1,0.0,0.0,63,0.00,CLR,,0.00,WeatherDisplay:10.37,2013-06-29 07:06:00,
2013-06-29 02:11:00,67.8,54.8,29.86,North,1,0.0,0.0,63,0.00,CLR,,0.00,WeatherDisplay:10.37,2013-06-29 07:11:00,
2013-06-29 02:16:00,67.8,55.2,29.86,North,1,0.0,0.0,64,0.00,CLR,,0.00,WeatherDisplay:10.37,2013-06-29 07:16:00,
2013-06-29 02:21:00,67.8,55.2,29.86,North,1,0.0,0.0,64,0.00,CLR,,0.00,WeatherDisplay:10.37,2013-06-29 07:21:00,
2013-06-29 02:26:00,67.6,55.0,29.85,North,1,0.0,0.0,64,0.00,CLR,,0.00,WeatherDisplay:10.37,2013-06-29 07:26:00,
2013-06-29 02:31:00,67.5,54.9,29.86,North,1,0.0,0.0,64,0.00,CLR,,0.00,WeatherDisplay:10.37,2013-06-29 07:31:00,
2013-06-29 02:36:00,67.5,54.9,29.86,North,1,0.0,0.0,64,0.00,CLR,,0.00,WeatherDisplay:10.37,2013-06-29 07:36:00,
2013-06-29 02:41:00,67.1,54.5,29.86,North,1,0.0,0.0,64,0.00,CLR,,0.00,WeatherDisplay:10.37,2013-06-29 07:41:00,
2013-06-29 02:46:00,66.9,54.3,29.86,North,1,0.0,0.0,64,0.00,CLR,,0.00,WeatherDisplay:10.37,2013-06-29 07:46:00,
2013-06-29 02:51:00,66.9,54.8,29.86,North,1,0.0,0.0,65,0.00,CLR,,0.00,WeatherDisplay:10.37,2013-06-29 07:51:00,
2013-06-29 02:56:00,66.7,54.6,29.86,North,1,0.0,0.0,65,0.00,CLR,,0.00,WeatherDisplay:10.37,2013-06-29 07:56:00,
2013-06-29 03:01:00,66.7,54.6,29.86,North,1,0.0,0.0,65,0.00,CLR,,0.00,WeatherDisplay:10.37,2013-06-29 08:01:00,
2013-06-29 03:06:00,66.6,54.4,29.86,North,1,0.0,0.0,65,0.00,CLR,,0.00,WeatherDisplay:10.37,2013-06-29 08:06:00,
2013-06-29 03:11:00,66.6,54.4,29.86,North,1,0.0,0.0,65,0.00,CLR,,0.00,WeatherDisplay:10.37,2013-06-29 08:11:00,
2013-06-29 03:16:00,66.6,54.4,29.86,North,1,0.0,0.0,65,0.00,CLR,,0.00,WeatherDisplay:10.37,2013-06-29 08:16:00,
2013-06-29 03:21:00,66.4,54.3,29.86,North,1,0.0,0.0,65,0.00,CLR,,0.00,WeatherDisplay:10.37,2013-06-29 08:21:00,
2013-06-29 03:26:00,66.2,54.1,29.86,North,1,0.0,0.0,65,0.00,CLR,,0.00,WeatherDisplay:10.37,2013-06-29 08:26:00,
2013-06-29 03:31:00,66.4,54.7,29.86,North,1,0.0,0.0,66,0.00,CLR,,0.00,WeatherDisplay:10.37,2013-06-29 08:31:00,
2013-06-29 03:36:00,66.4,54.7,29.87,North,1,0.0,0.0,66,0.00,CLR,,0.00,WeatherDisplay:10.37,2013-06-29 08:36:00,
2013-06-29 03:41:00,66.0,53.9,29.87,North,1,0.0,0.0,65,0.00,CLR,,0.00,WeatherDisplay:10.37,2013-06-29 08:41:00,
2013-06-29 03:46:00,65.8,54.2,29.87,North,1,0.0,0.0,66,0.00,CLR,,0.00,WeatherDisplay:10.37,2013-06-29 08:46:00,
2013-06-29 03:51:00,65.7,54.0,29.87,North,1,0.0,0.0,66,0.00,CLR,,0.00,WeatherDisplay:10.37,2013-06-29 08:51:00,
2013-06-29 03:56:00,65.5,54.2,29.87,North,1,0.0,0.0,67,0.00,CLR,,0.00,WeatherDisplay:10.37,2013-06-29 08:56:00,
2013-06-29 04:01:00,65.7,54.4,29.87,North,1,0.0,0.0,67,0.00,CLR,,0.00,WeatherDisplay:10.37,2013-06-29 09:01:00,
2013-06-29 04:06:00,65.8,54.6,29.87,North,1,0.0,0.0,67,0.00,CLR,,0.00,WeatherDisplay:10.37,2013-06-29 09:06:00,
2013-06-29 04:11:00,65.8,54.2,29.87,North,1,0.0,0.0,66,0.00,CLR,,0.00,WeatherDisplay:10.37,2013-06-29 09:11:00,
2013-06-29 04:16:00,65.7,54.0,29.87,North,1,0.0,0.0,66,0.00,CLR,,0.00,WeatherDisplay:10.37,2013-06-29 09:16:00,
2013-06-29 04:21:00,65.5,53.8,29.87,North,1,0.0,0.0,66,0.00,CLR,,0.00,WeatherDisplay:10.37,2013-06-29 09:21:00,
2013-06-29 04:26:00,65.5,54.2,29.87,North,1,0.0,0.0,67,0.00,CLR,,0.00,WeatherDisplay:10.37,2013-06-29 09:26:00,
2013-06-29 04:31:00,65.7,54.4,29.87,North,1,0.0,0.0,67,0.00,CLR,,0.00,WeatherDisplay:10.37,2013-06-29 09:31:00,
2013-06-29 04:36:00,65.7,54.4,29.87,North,1,0.0,0.0,67,0.00,CLR,,0.00,WeatherDisplay:10.37,2013-06-29 09:36:00,
2013-06-29 04:41:00,65.3,54.1,29.87,North,1,0.0,0.0,67,0.00,CLR,,0.00,WeatherDisplay:10.37,2013-06-29 09:41:00,
2013-06-29 04:46:00,65.1,53.9,29.87,North,1,0.0,0.0,67,0.00,CLR,,0.00,WeatherDisplay:10.37,2013-06-29 09:46:00,
2013-06-29 04:51:00,64.8,53.5,29.87,North,1,0.0,0.0,67,0.00,CLR,,0.00,WeatherDisplay:10.37,2013-06-29 09:51:00,
2013-06-29 04:56:00,65.1,54.3,29.87,North,1,0.0,0.0,68,0.00,CLR,,0.00,WeatherDisplay:10.37,2013-06-29 09:56:00,
2013-06-29 05:01:00,65.1,53.9,29.87,North,1,0.0,0.0,67,0.00,CLR,,0.00,WeatherDisplay:10.37,2013-06-29 10:01:00,
2013-06-29 05:06:00,64.9,53.7,29.87,North,1,0.0,0.0,67,0.00,CLR,,0.00,WeatherDisplay:10.37,2013-06-29 10:06:00,
2013-06-29 05:11:00,64.8,53.5,29.87,North,1,0.0,0.0,67,0.00,CLR,,0.00,WeatherDisplay:10.37,2013-06-29 10:11:00,
2013-06-29 05:16:00,64.6,53.4,29.86,North,1,0.0,0.0,67,0.00,CLR,,0.00,WeatherDisplay:10.37,2013-06-29 10:16:00,
2013-06-29 05:21:00,64.6,53.8,29.87,North,1,0.0,0.0,68,0.00,CLR,,0.00,WeatherDisplay:10.37,2013-06-29 10:21:00,
2013-06-29 05:26:00,64.8,53.9,29.86,North,1,0.0,0.0,68,0.00,CLR,,0.00,WeatherDisplay:10.37,2013-06-29 10:26:00,
2013-06-29 05:31:00,64.6,53.4,29.87,North,1,0.0,0.0,67,0.00,CLR,,0.00,WeatherDisplay:10.37,2013-06-29 10:31:00,
2013-06-29 05:36:00,64.4,53.2,29.87,North,1,0.0,0.0,67,0.00,CLR,,0.00,WeatherDisplay:10.37,2013-06-29 10:36:00,
2013-06-29 05:41:00,64.2,53.4,29.87,North,1,0.0,0.0,68,0.00,CLR,,0.00,WeatherDisplay:10.37,2013-06-29 10:41:00,
2013-06-29 05:46:00,64.4,54.0,29.87,North,1,0.0,0.0,69,0.00,CLR,,0.00,WeatherDisplay:10.37,2013-06-29 10:46:00,
2013-06-29 05:51:00,64.8,53.9,29.87,North,1,0.0,0.0,68,0.00,CLR,,0.00,WeatherDisplay:10.37,2013-06-29 10:51:00,
2013-06-29 05:56:00,64.6,53.8,29.87,North,1,0.0,0.0,68,0.00,CLR,,0.00,WeatherDisplay:10.37,2013-06-29 10:56:00,
2013-06-29 06:01:00,64.4,53.6,29.87,North,1,0.0,0.0,68,0.00,CLR,,0.00,WeatherDisplay:10.37,2013-06-29 11:01:00,
2013-06-29 06:06:00,64.2,53.4,29.87,North,1,0.0,0.0,68,0.00,CLR,,0.00,WeatherDisplay:10.37,2013-06-29 11:06:00,
2013-06-29 06:11:00,64.6,54.2,29.87,North,1,0.0,0.0,69,0.00,CLR,,0.00,WeatherDisplay:10.37,2013-06-29 11:11:00,
2013-06-29 06:16:00,64.8,53.9,29.87,North,1,0.0,0.0,68,0.00,CLR,,0.00,WeatherDisplay:10.37,2013-06-29 11:16:00,
2013-06-29 06:21:00,64.8,53.9,29.88,North,1,0.0,0.0,68,0.00,CLR,,0.00,WeatherDisplay:10.37,2013-06-29 11:21:00,
2013-06-29 06:26:00,64.6,53.8,29.88,North,1,0.0,0.0,68,0.00,CLR,,0.00,WeatherDisplay:10.37,2013-06-29 11:26:00,
2013-06-29 06:31:00,64.4,53.6,29.88,North,1,0.0,0.0,68,0.00,CLR,,0.00,WeatherDisplay:10.37,2013-06-29 11:31:00,
2013-06-29 06:36:00,64.8,54.3,29.88,North,1,0.0,0.0,69,0.00,CLR,,0.00,WeatherDisplay:10.37,2013-06-29 11:36:00,
2013-06-29 06:41:00,64.9,54.5,29.88,North,1,0.0,0.0,69,0.00,CLR,,0.00,WeatherDisplay:10.37,2013-06-29 11:41:00,
2013-06-29 06:46:00,64.9,54.1,29.88,North,1,0.0,0.0,68,0.00,CLR,,0.00,WeatherDisplay:10.37,2013-06-29 11:46:00,
2013-06-29 06:51:00,64.8,53.9,29.88,North,1,0.0,0.0,68,0.00,CLR,,0.00,WeatherDisplay:10.37,2013-06-29 11:51:00,
2013-06-29 06:56:00,64.8,53.9,29.88,North,1,0.0,0.0,68,0.00,CLR,,0.00,WeatherDisplay:10.37,2013-06-29 11:56:00,
2013-06-29 07:01:00,65.1,54.3,29.88,North,1,0.0,0.0,68,0.00,CLR,,0.00,WeatherDisplay:10.37,2013-06-29 12:01:00,
2013-06-29 07:06:00,65.5,54.6,29.88,North,1,0.0,0.0,68,0.00,CLR,,0.00,WeatherDisplay:10.37,2013-06-29 12:06:00,
2013-06-29 07:11:00,65.5,54.6,29.88,North,1,0.0,0.0,68,0.00,CLR,,0.00,WeatherDisplay:10.37,2013-06-29 12:11:00,
2013-06-29 07:16:00,65.5,54.6,29.88,North,1,0.0,0.0,68,0.00,CLR,,0.00,WeatherDisplay:10.37,2013-06-29 12:16:00,
2013-06-29 07:21:00,65.7,54.8,29.88,North,1,0.0,0.0,68,0.00,CLR,,0.00,WeatherDisplay:10.37,2013-06-29 12:21:00,
2013-06-29 07:26:00,66.0,55.2,29.88,North,1,0.0,0.0,68,0.00,CLR,,0.00,WeatherDisplay:10.37,2013-06-29 12:26:00,
2013-06-29 07:31:00,66.0,55.2,29.88,North,1,0.0,0.0,68,0.00,CLR,,0.00,WeatherDisplay:10.37,2013-06-29 12:31:00,
2013-06-29 07:36:00,66.2,55.3,29.88,North,1,0.0,0.0,68,0.00,CLR,,0.00,WeatherDisplay:10.37,2013-06-29 12:36:00,
2013-06-29 07:41:00,66.4,55.5,29.87,North,1,0.0,0.0,68,0.00,CLR,,0.00,WeatherDisplay:10.37,2013-06-29 12:41:00,
2013-06-29 07:46:00,66.6,55.7,29.88,North,1,0.0,0.0,68,0.00,CLR,,0.00,WeatherDisplay:10.37,2013-06-29 12:46:00,
2013-06-29 07:51:00,66.9,55.6,29.88,North,1,0.0,0.0,67,0.00,CLR,,0.00,WeatherDisplay:10.37,2013-06-29 12:51:00,
2013-06-29 07:56:00,67.1,55.8,29.88,North,1,0.0,0.0,67,0.00,CLR,,0.00,WeatherDisplay:10.37,2013-06-29 12:56:00,
2013-06-29 08:01:00,67.5,56.1,29.88,North,1,0.0,0.0,67,0.00,CLR,,0.00,WeatherDisplay:10.37,2013-06-29 13:01:00,
2013-06-29 08:06:00,67.8,56.5,29.88,North,1,0.0,0.0,67,0.00,CLR,,0.00,WeatherDisplay:10.37,2013-06-29 13:06:00,
2013-06-29 08:11:00,68.2,56.4,29.88,North,1,0.0,0.0,66,0.00,CLR,,0.00,WeatherDisplay:10.37,2013-06-29 13:11:00,
2013-06-29 08:16:00,68.5,56.7,29.88,North,1,0.0,0.0,66,0.00,CLR,,0.00,WeatherDisplay:10.37,2013-06-29 13:16:00,
2013-06-29 08:21:00,69.1,57.2,29.88,North,1,0.0,0.0,66,0.00,CLR,,0.00,WeatherDisplay:10.37,2013-06-29 13:21:00,
2013-06-29 08:26:00,69.6,57.3,29.88,North,1,0.0,0.0,65,0.00,CLR,,0.00,WeatherDisplay:10.37,2013-06-29 13:26:00,
2013-06-29 08:31:00,70.5,57.8,29.87,North,1,0.0,0.0,64,0.00,CLR,,0.00,WeatherDisplay:10.37,2013-06-29 13:31:00,
2013-06-29 08:36:00,71.2,58.0,29.88,North,1,0.0,0.0,63,0.00,CLR,,0.00,WeatherDisplay:10.37,2013-06-29 13:36:00,
2013-06-29 08:41:00,72.0,58.7,29.88,North,1,0.0,0.0,63,0.00,CLR,,0.00,WeatherDisplay:10.37,2013-06-29 13:41:00,
2013-06-29 08:46:00,72.7,58.9,29.88,North,1,0.0,0.0,62,0.00,CLR,,0.00,WeatherDisplay:10.37,2013-06-29 13:46:00,
2013-06-29 08:51:00,74.1,59.8,29.88,North,1,0.0,0.0,61,0.00,CLR,,0.00,WeatherDisplay:10.37,2013-06-29 13:51:00,
2013-06-29 08:56:00,74.8,60.0,29.88,North,1,0.0,0.0,60,0.00,CLR,,0.00,WeatherDisplay:10.37,2013-06-29 13:56:00,
2013-06-29 09:01:00,75.6,60.2,29.88,North,1,0.0,0.0,59,0.00,CLR,,0.00,WeatherDisplay:10.37,2013-06-29 14:01:00,
2013-06-29 09:06:00,76.5,60.6,29.88,North,1,0.0,0.0,58,0.00,CLR,,0.00,WeatherDisplay:10.37,2013-06-29 14:06:00,
2013-06-29 09:11:00,77.4,61.4,29.88,North,1,0.0,0.0,58,0.00,CLR,,0.00,WeatherDisplay:10.37,2013-06-29 14:11:00,
2013-06-29 09:16:00,78.1,61.6,29.88,North,1,0.0,0.0,57,0.00,CLR,,0.00,WeatherDisplay:10.37,2013-06-29 14:16:00,
2013-06-29 09:21:00,79.2,61.6,29.88,North,1,0.0,0.0,55,0.00,CLR,,0.00,WeatherDisplay:10.37,2013-06-29 14:21:00,
2013-06-29 09:26:00,79.9,61.2,29.87,North,1,0.0,0.0,53,0.00,CLR,,0.00,WeatherDisplay:10.37,2013-06-29 14:26:00,
2013-06-29 09:31:00,80.2,61.6,29.87,North,1,0.0,0.0,53,0.00,CLR,,0.00,WeatherDisplay:10.37,2013-06-29 14:31:00,
2013-06-29 09:36:00,80.6,61.3,29.87,North,1,0.0,0.0,52,0.00,CLR,,0.00,WeatherDisplay:10.37,2013-06-29 14:36:00,
2013-06-29 09:41:00,81.5,61.6,29.87,North,1,0.0,0.0,51,0.00,CLR,,0.00,WeatherDisplay:10.37,2013-06-29 14:41:00,
2013-06-29 09:46:00,82.2,62.3,29.87,North,1,0.0,0.0,51,0.00,CLR,,0.00,WeatherDisplay:10.37,2013-06-29 14:46:00,
2013-06-29 09:51:00,83.1,62.6,29.88,North,1,0.0,0.0,50,0.00,CLR,,0.00,WeatherDisplay:10.37,2013-06-29 14:51:00,
2013-06-29 09:56:00,83.3,62.1,29.87,North,1,0.0,0.0,49,0.00,CLR,,0.00,WeatherDisplay:10.37,2013-06-29 14:56:00,
2013-06-29 10:01:00,83.5,62.3,29.87,North,1,0.0,0.0,49,0.00,CLR,,0.00,WeatherDisplay:10.37,2013-06-29 15:01:00,
2013-06-29 10:06:00,83.7,62.5,29.88,North,1,0.0,0.0,49,0.00,CLR,,0.00,WeatherDisplay:10.37,2013-06-29 15:06:00,
2013-06-29 10:11:00,83.8,61.5,29.88,North,1,0.0,0.0,47,0.00,CLR,,0.00,WeatherDisplay:10.37,2013-06-29 15:11:00,
2013-06-29 10:16:00,84.0,61.6,29.87,North,1,0.0,0.0,47,0.00,CLR,,0.00,WeatherDisplay:10.37,2013-06-29 15:16:00,
2013-06-29 10:21:00,84.6,62.1,29.87,North,1,0.0,0.0,47,0.00,CLR,,0.00,WeatherDisplay:10.37,2013-06-29 15:21:00,
2013-06-29 10:26:00,84.9,61.8,29.87,North,1,0.0,0.0,46,0.00,CLR,,0.00,WeatherDisplay:10.37,2013-06-29 15:26:00,
2013-06-29 10:31:00,84.9,61.8,29.88,North,1,0.0,0.0,46,0.00,CLR,,0.00,WeatherDisplay:10.37,2013-06-29 15:31:00,
2013-06-29 10:36:00,85.5,62.3,29.87,North,1,0.0,0.0,46,0.00,CLR,,0.00,WeatherDisplay:10.37,2013-06-29 15:36:00,
2013-06-29 10:41:00,85.6,61.9,29.87,North,1,0.0,0.0,45,0.00,CLR,,0.00,WeatherDisplay:10.37,2013-06-29 15:41:00,
2013-06-29 10:46:00,85.5,62.3,29.87,North,1,0.0,0.0,46,0.00,CLR,,0.00,WeatherDisplay:10.37,2013-06-29 15:46:00,
2013-06-29 10:51:00,86.0,62.2,29.87,North,1,0.0,0.0,45,0.00,CLR,,0.00,WeatherDisplay:10.37,2013-06-29 15:51:00,
2013-06-29 10:56:00,86.4,62.5,29.87,North,1,0.0,0.0,45,0.00,CLR,,0.00,WeatherDisplay:10.37,2013-06-29 15:56:00,
2013-06-29 11:01:00,86.5,62.0,29.87,North,1,0.0,0.0,44,0.00,CLR,,0.00,WeatherDisplay:10.37,2013-06-29 16:01:00,
2013-06-29 11:06:00,86.5,62.0,29.87,North,1,0.0,0.0,44,0.00,CLR,,0.00,WeatherDisplay:10.37,2013-06-29 16:06:00,
2013-06-29 11:11:00,86.7,62.2,29.86,North,1,0.0,0.0,44,0.00,CLR,,0.00,WeatherDisplay:10.37,2013-06-29 16:11:00,
2013-06-29 11:16:00,86.4,61.2,29.86,North,1,0.0,0.0,43,0.00,CLR,,0.00,WeatherDisplay:10.37,2013-06-29 16:16:00,
2013-06-29 11:21:00,86.4,61.9,29.86,North,1,0.0,0.0,44,0.00,CLR,,0.00,WeatherDisplay:10.37,2013-06-29 16:21:00,
2013-06-29 11:26:00,86.7,62.2,29.86,North,1,0.0,0.0,44,0.00,CLR,,0.00,WeatherDisplay:10.37,2013-06-29 16:26:00,
2013-06-29 11:31:00,86.7,61.5,29.86,North,1,0.0,0.0,43,0.00,CLR,,0.00,WeatherDisplay:10.37,2013-06-29 16:31:00,
2013-06-29 11:36:00,86.7,61.5,29.86,North,1,0.0,0.0,43,0.00,CLR,,0.00,WeatherDisplay:10.37,2013-06-29 16:36:00,
2013-06-29 11:41:00,86.4,60.6,29.86,North,1,0.0,0.0,42,0.00,CLR,,0.00,WeatherDisplay:10.37,2013-06-29 16:41:00,
2013-06-29 11:46:00,86.2,59.7,29.86,North,1,0.0,0.0,41,0.00,CLR,,0.00,WeatherDisplay:10.37,2013-06-29 16:46:00,
2013-06-29 11:51:00,86.2,59.7,29.86,North,1,0.0,0.0,41,0.00,CLR,,0.00,WeatherDisplay:10.37,2013-06-29 16:51:00,
2013-06-29 11:56:00,86.4,59.9,29.86,North,1,0.0,0.0,41,0.00,CLR,,0.00,WeatherDisplay:10.37,2013-06-29 16:56:00,
2013-06-29 12:01:00,86.4,59.2,29.86,North,1,0.0,0.0,40,0.00,CLR,,0.00,WeatherDisplay:10.37,2013-06-29 17:01:00,
2013-06-29 12:06:00,86.7,59.5,29.86,North,1,0.0,0.0,40,0.00,CLR,,0.00,WeatherDisplay:10.37,2013-06-29 17:06:00,
2013-06-29 12:11:00,86.9,59.7,29.86,North,1,0.0,0.0,40,0.00,CLR,,0.00,WeatherDisplay:10.37,2013-06-29 17:11:00,
2013-06-29 12:16:00,87.1,59.8,29.86,North,1,0.0,0.0,40,0.00,CLR,,0.00,WeatherDisplay:10.37,2013-06-29 17:16:00,
2013-06-29 12:21:00,87.1,58.4,29.86,North,1,0.0,0.0,38,0.00,CLR,,0.00,WeatherDisplay:10.37,2013-06-29 17:21:00,
2013-06-29 12:26:00,86.5,57.9,29.86,North,1,0.0,0.0,38,0.00,CLR,,0.00,WeatherDisplay:10.37,2013-06-29 17:26:00,
2013-06-29 12:31:00,86.5,57.9,29.86,North,1,0.0,0.0,38,0.00,CLR,,0.00,WeatherDisplay:10.37,2013-06-29 17:31:00,
2013-06-29 12:36:00,86.4,57.8,29.86,North,1,0.0,0.0,38,0.00,CLR,,0.00,WeatherDisplay:10.37,2013-06-29 17:36:00,
2013-06-29 12:41:00,86.4,57.8,29.85,North,1,0.0,0.0,38,0.00,CLR,,0.00,WeatherDisplay:10.37,2013-06-29 17:41:00,
2013-06-29 12:46:00,86.4,57.8,29.85,North,1,0.0,0.0,38,0.00,CLR,,0.00,WeatherDisplay:10.37,2013-06-29 17:46:00,
2013-06-29 12:51:00,86.9,57.5,29.85,North,1,0.0,0.0,37,0.00,CLR,,0.00,WeatherDisplay:10.37,2013-06-29 17:51:00,
2013-06-29 12:56:00,87.1,58.4,29.85,North,1,0.0,0.0,38,0.00,CLR,,0.00,WeatherDisplay:10.37,2013-06-29 17:56:00,
2013-06-29 13:01:00,87.1,57.7,29.84,North,1,0.0,0.0,37,0.00,CLR,,0.00,WeatherDisplay:10.37,2013-06-29 18:01:00,
2013-06-29 13:06:00,87.1,57.7,29.85,North,1,0.0,0.0,37,0.00,CLR,,0.00,WeatherDisplay:10.37,2013-06-29 18:06:00,
2013-06-29 13:11:00,87.1,56.9,29.84,North,1,0.0,0.0,36,0.00,CLR,,0.00,WeatherDisplay:10.37,2013-06-29 18:11:00,
2013-06-29 13:16:00,86.9,56.7,29.84,North,1,0.0,0.0,36,0.00,CLR,,0.00,WeatherDisplay:10.37,2013-06-29 18:16:00,
2013-06-29 13:21:00,86.7,57.3,29.84,North,1,0.0,0.0,37,0.00,CLR,,0.00,WeatherDisplay:10.37,2013-06-29 18:21:00,
2013-06-29 13:26:00,86.5,56.4,29.84,North,1,0.0,0.0,36,0.00,CLR,,0.00,WeatherDisplay:10.37,2013-06-29 18:26:00,
2013-06-29 13:31:00,86.4,56.3,29.84,North,1,0.0,0.0,36,0.00,CLR,,0.00,WeatherDisplay:10.37,2013-06-29 18:31:00,
2013-06-29 13:36:00,86.5,56.4,29.84,North,1,0.0,0.0,36,0.00,CLR,,0.00,WeatherDisplay:10.37,2013-06-29 18:36:00,
2013-06-29 13:41:00,86.4,56.3,29.84,North,1,0.0,0.0,36,0.00,CLR,,0.00,WeatherDisplay:10.37,2013-06-29 18:41:00,
2013-06-29 13:46:00,85.8,56.5,29.84,North,1,0.0,0.0,37,0.00,CLR,,0.00,WeatherDisplay:10.37,2013-06-29 18:46:00,
2013-06-29 13:51:00,85.5,55.5,29.84,North,1,0.0,0.0,36,0.00,CLR,,0.00,WeatherDisplay:10.37,2013-06-29 18:51:00,
2013-06-29 13:56:00,85.5,55.5,29.84,North,1,0.0,0.0,36,0.00,CLR,,0.00,WeatherDisplay:10.37,2013-06-29 18:56:00,
2013-06-29 14:01:00,85.8,55.8,29.83,North,1,0.0,0.0,36,0.00,CLR,,0.00,WeatherDisplay:10.37,2013-06-29 19:01:00,
2013-06-29 14:06:00,86.2,56.1,29.83,North,1,0.0,0.0,36,0.00,CLR,,0.00,WeatherDisplay:10.37,2013-06-29 19:06:00,
2013-06-29 14:11:00,85.8,55.8,29.83,North,1,0.0,0.0,36,0.00,CLR,,0.00,WeatherDisplay:10.37,2013-06-29 19:11:00,
2013-06-29 14:16:00,85.8,55.8,29.83,North,1,0.0,0.0,36,0.00,CLR,,0.00,WeatherDisplay:10.37,2013-06-29 19:16:00,
2013-06-29 14:21:00,85.8,55.8,29.83,North,1,0.0,0.0,36,0.00,CLR,,0.00,WeatherDisplay:10.37,2013-06-29 19:21:00,
2013-06-29 14:26:00,85.8,55.8,29.83,North,1,0.0,0.0,36,0.00,CLR,,0.00,WeatherDisplay:10.37,2013-06-29 19:26:00,
2013-06-29 14:31:00,85.8,55.8,29.83,North,1,0.0,0.0,36,0.00,CLR,,0.00,WeatherDisplay:10.37,2013-06-29 19:31:00,
2013-06-29 14:36:00,85.8,55.8,29.83,North,1,0.0,0.0,36,0.00,CLR,,0.00,WeatherDisplay:10.37,2013-06-29 19:36:00,
2013-06-29 14:41:00,85.5,56.2,29.83,North,1,0.0,0.0,37,0.00,CLR,,0.00,WeatherDisplay:10.37,2013-06-29 19:41:00,
2013-06-29 14:46:00,85.5,55.5,29.83,North,1,0.0,0.0,36,0.00,CLR,,0.00,WeatherDisplay:10.37,2013-06-29 19:46:00,
2013-06-29 14:51:00,85.5,56.2,29.82,North,1,0.0,0.0,37,0.00,CLR,,0.00,WeatherDisplay:10.37,2013-06-29 19:51:00,
2013-06-29 14:56:00,85.5,56.2,29.82,North,1,0.0,0.0,37,0.00,CLR,,0.00,WeatherDisplay:10.37,2013-06-29 19:56:00,
2013-06-29 15:01:00,85.3,56.1,29.82,North,1,0.0,0.0,37,0.00,CLR,,0.00,WeatherDisplay:10.37,2013-06-29 20:01:00,
2013-06-29 15:06:00,85.1,56.6,29.82,North,1,0.0,0.0,38,0.00,CLR,,0.00,WeatherDisplay:10.37,2013-06-29 20:06:00,
2013-06-29 15:11:00,84.9,55.7,29.82,North,1,0.0,0.0,37,0.00,CLR,,0.00,WeatherDisplay:10.37,2013-06-29 20:11:00,
2013-06-29 15:16:00,84.6,55.4,29.82,North,1,0.0,0.0,37,0.00,CLR,,0.00,WeatherDisplay:10.37,2013-06-29 20:16:00,
2013-06-29 15:21:00,84.4,56.0,29.82,North,1,0.0,0.0,38,0.00,CLR,,0.00,WeatherDisplay:10.37,2013-06-29 20:21:00,
2013-06-29 15:26:00,84.6,56.2,29.82,North,1,0.0,0.0,38,0.00,CLR,,0.00,WeatherDisplay:10.37,2013-06-29 20:26:00,
2013-06-29 15:31:00,84.4,56.0,29.82,North,1,0.0,0.0,38,0.00,CLR,,0.00,WeatherDisplay:10.37,2013-06-29 20:31:00,
2013-06-29 15:36:00,84.2,56.6,29.81,North,1,0.0,0.0,39,0.00,CLR,,0.00,WeatherDisplay:10.37,2013-06-29 20:36:00,
2013-06-29 15:41:00,84.4,56.7,29.82,North,1,0.0,0.0,39,0.00,CLR,,0.00,WeatherDisplay:10.37,2013-06-29 20:41:00,
2013-06-29 15:46:00,84.0,56.4,29.82,North,1,0.0,0.0,39,0.00,CLR,,0.00,WeatherDisplay:10.37,2013-06-29 20:46:00,
2013-06-29 15:51:00,83.7,56.1,29.82,North,1,0.0,0.0,39,0.00,CLR,,0.00,WeatherDisplay:10.37,2013-06-29 20:51:00,
2013-06-29 15:56:00,83.5,55.2,29.82,North,1,0.0,0.0,38,0.00,CLR,,0.00,WeatherDisplay:10.37,2013-06-29 20:56:00,
2013-06-29 16:01:00,83.3,55.8,29.82,North,1,0.0,0.0,39,0.00,CLR,,0.00,WeatherDisplay:10.37,2013-06-29 21:01:00,
2013-06-29 16:06:00,83.1,55.6,29.81,North,1,0.0,0.0,39,0.00,CLR,,0.00,WeatherDisplay:10.37,2013-06-29 21:06:00,
2013-06-29 16:11:00,83.1,55.6,29.81,North,1,0.0,0.0,39,0.00,CLR,,0.00,WeatherDisplay:10.37,2013-06-29 21:11:00,
2013-06-29 16:16:00,83.1,55.6,29.82,North,1,0.0,0.0,39,0.00,CLR,,0.00,WeatherDisplay:10.37,2013-06-29 21:16:00,
2013-06-29 16:21:00,83.1,55.6,29.81,North,1,0.0,0.0,39,0.00,CLR,,0.00,WeatherDisplay:10.37,2013-06-29 21:21:00,
2013-06-29 16:26:00,82.9,54.7,29.81,North,1,0.0,0.0,38,0.00,CLR,,0.00,WeatherDisplay:10.37,2013-06-29 21:26:00,
2013-06-29 16:31:00,82.8,54.6,29.82,North,1,0.0,0.0,38,0.00,CLR,,0.00,WeatherDisplay:10.37,2013-06-29 21:31:00,
2013-06-29 16:36:00,81.9,54.5,29.82,North,1,0.0,0.0,39,0.00,CLR,,0.00,WeatherDisplay:10.37,2013-06-29 21:36:00,
2013-06-29 16:41:00,81.9,54.5,29.81,North,1,0.0,0.0,39,0.00,CLR,,0.00,WeatherDisplay:10.37,2013-06-29 21:41:00,
2013-06-29 16:46:00,81.9,55.2,29.81,North,1,0.0,0.0,40,0.00,CLR,,0.00,WeatherDisplay:10.37,2013-06-29 21:46:00,
2013-06-29 16:51:00,82.0,55.3,29.81,North,1,0.0,0.0,40,0.00,CLR,,0.00,WeatherDisplay:10.37,2013-06-29 21:51:00,
2013-06-29 16:56:00,82.6,55.8,29.81,North,1,0.0,0.0,40,0.00,CLR,,0.00,WeatherDisplay:10.37,2013-06-29 21:56:00,
2013-06-29 17:01:00,82.8,56.0,29.81,North,1,0.0,0.0,40,0.00,CLR,,0.00,WeatherDisplay:10.37,2013-06-29 22:01:00,
2013-06-29 17:06:00,82.8,55.3,29.81,North,1,0.0,0.0,39,0.00,CLR,,0.00,WeatherDisplay:10.37,2013-06-29 22:06:00,
2013-06-29 17:11:00,82.6,55.8,29.81,North,1,0.0,0.0,40,0.00,CLR,,0.00,WeatherDisplay:10.37,2013-06-29 22:11:00,
2013-06-29 17:16:00,82.6,55.8,29.81,North,1,0.0,0.0,40,0.00,CLR,,0.00,WeatherDisplay:10.37,2013-06-29 22:16:00,
2013-06-29 17:21:00,82.2,55.5,29.81,North,1,0.0,0.0,40,0.00,CLR,,0.00,WeatherDisplay:10.37,2013-06-29 22:21:00,
2013-06-29 17:26:00,82.0,55.3,29.81,North,1,0.0,0.0,40,0.00,CLR,,0.00,WeatherDisplay:10.37,2013-06-29 22:26:00,
2013-06-29 17:31:00,81.9,55.2,29.81,North,1,0.0,0.0,40,0.00,CLR,,0.00,WeatherDisplay:10.37,2013-06-29 22:31:00,
2013-06-29 17:36:00,81.9,55.2,29.80,North,1,0.0,0.0,40,0.00,CLR,,0.00,WeatherDisplay:10.37,2013-06-29 22:36:00,
2013-06-29 17:41:00,81.9,55.2,29.81,North,1,0.0,0.0,40,0.00,CLR,,0.00,WeatherDisplay:10.37,2013-06-29 22:41:00,
2013-06-29 17:46:00,81.7,55.7,29.81,North,1,0.0,0.0,41,0.00,CLR,,0.00,WeatherDisplay:10.37,2013-06-29 22:46:00,
2013-06-29 17:51:00,81.5,55.5,29.81,North,1,0.0,0.0,41,0.00,CLR,,0.00,WeatherDisplay:10.37,2013-06-29 22:51:00,
2013-06-29 17:56:00,81.3,55.4,29.81,North,1,0.0,0.0,41,0.00,CLR,,0.00,WeatherDisplay:10.37,2013-06-29 22:56:00,
2013-06-29 18:01:00,81.3,55.4,29.82,North,1,0.0,0.0,41,0.00,CLR,,0.00,WeatherDisplay:10.37,2013-06-29 23:01:00,
2013-06-29 18:06:00,81.0,55.7,29.82,North,1,0.0,0.0,42,0.00,CLR,,0.00,WeatherDisplay:10.37,2013-06-29 23:06:00,
2013-06-29 18:11:00,81.0,55.7,29.81,North,1,0.0,0.0,42,0.00,CLR,,0.00,WeatherDisplay:10.37,2013-06-29 23:11:00,
2013-06-29 18:16:00,80.8,55.5,29.81,North,1,0.0,0.0,42,0.00,CLR,,0.00,WeatherDisplay:10.37,2013-06-29 23:16:00,
2013-06-29 18:21:00,80.8,56.8,29.81,North,1,0.0,0.0,44,0.00,CLR,,0.00,WeatherDisplay:10.37,2013-06-29 23:21:00,
2013-06-29 18:26:00,80.4,55.9,29.81,North,1,0.0,0.0,43,0.00,CLR,,0.00,WeatherDisplay:10.37,2013-06-29 23:26:00,
2013-06-29 18:31:00,80.1,56.2,29.81,North,1,0.0,0.0,44,0.00,CLR,,0.00,WeatherDisplay:10.37,2013-06-29 23:31:00,
2013-06-29 18:36:00,79.5,55.1,29.82,North,1,0.0,0.0,43,0.00,CLR,,0.00,WeatherDisplay:10.37,2013-06-29 23:36:00,
2013-06-29 18:41:00,79.2,56.0,29.82,North,1,0.0,0.0,45,0.00,CLR,,0.00,WeatherDisplay:10.37,2013-06-29 23:41:00,
2013-06-29 18:46:00,79.2,56.0,29.82,North,1,0.0,0.0,45,0.00,CLR,,0.00,WeatherDisplay:10.37,2013-06-29 23:46:00,
2013-06-29 18:51:00,78.6,55.5,29.82,North,1,0.0,0.0,45,0.00,CLR,,0.00,WeatherDisplay:10.37,2013-06-29 23:51:00,
2013-06-29 18:56:00,78.3,55.8,29.83,North,1,0.0,0.0,46,0.00,CLR,,0.00,WeatherDisplay:10.37,2013-06-29 23:56:00,
2013-06-29 19:01:00,78.1,56.2,29.83,North,1,0.0,0.0,47,0.00,CLR,,0.00,WeatherDisplay:10.37,2013-06-30 00:01:00,
2013-06-29 19:06:00,77.5,55.7,29.83,North,1,0.0,0.0,47,0.00,CLR,,0.00,WeatherDisplay:10.37,2013-06-30 00:06:00,
2013-06-29 19:11:00,77.4,56.1,29.83,North,1,0.0,0.0,48,0.00,CLR,,0.00,WeatherDisplay:10.37,2013-06-30 00:11:00,
2013-06-29 19:16:00,77.0,55.8,29.83,North,1,0.0,0.0,48,0.00,CLR,,0.00,WeatherDisplay:10.37,2013-06-30 00:16:00,
2013-06-29 19:21:00,76.8,55.6,29.83,North,1,0.0,0.0,48,0.00,CLR,,0.00,WeatherDisplay:10.37,2013-06-30 00:21:00,
2013-06-29 19:26:00,76.5,55.9,29.83,North,1,0.0,0.0,49,0.00,CLR,,0.00,WeatherDisplay:10.37,2013-06-30 00:26:00,
2013-06-29 19:31:00,76.1,55.5,29.83,North,1,0.0,0.0,49,0.00,CLR,,0.00,WeatherDisplay:10.37,2013-06-30 00:31:00,
2013-06-29 19:36:00,75.6,55.6,29.83,North,1,0.0,0.0,50,0.00,CLR,,0.00,WeatherDisplay:10.37,2013-06-30 00:36:00,
2013-06-29 19:41:00,75.6,55.6,29.83,North,1,0.0,0.0,50,0.00,CLR,,0.00,WeatherDisplay:10.37,2013-06-30 00:41:00,
2013-06-29 19:46:00,75.4,56.0,29.83,North,1,0.0,0.0,51,0.00,CLR,,0.00,WeatherDisplay:10.37,2013-06-30 00:46:00,
2013-06-29 19:51:00,75.2,55.8,29.84,North,1,0.0,0.0,51,0.00,CLR,,0.00,WeatherDisplay:10.37,2013-06-30 00:51:00,
2013-06-29 19:56:00,75.0,55.7,29.83,North,1,0.0,0.0,51,0.00,CLR,,0.00,WeatherDisplay:10.37,2013-06-30 00:56:00,
2013-06-29 20:01:00,74.8,56.0,29.84,North,1,0.0,0.0,52,0.00,CLR,,0.00,WeatherDisplay:10.37,2013-06-30 01:01:00,
2013-06-29 20:06:00,74.7,55.9,29.84,North,1,0.0,0.0,52,0.00,CLR,,0.00,WeatherDisplay:10.37,2013-06-30 01:06:00,
2013-06-29 20:11:00,74.5,55.7,29.84,North,1,0.0,0.0,52,0.00,CLR,,0.00,WeatherDisplay:10.37,2013-06-30 01:11:00,
2013-06-29 20:16:00,74.1,55.4,29.84,North,1,0.0,0.0,52,0.00,CLR,,0.00,WeatherDisplay:10.37,2013-06-30 01:16:00,
2013-06-29 20:21:00,73.9,55.2,29.84,North,1,0.0,0.0,52,0.00,CLR,,0.00,WeatherDisplay:10.37,2013-06-30 01:21:00,
2013-06-29 20:26:00,73.8,55.0,29.84,North,1,0.0,0.0,52,0.00,CLR,,0.00,WeatherDisplay:10.37,2013-06-30 01:26:00,
2013-06-29 20:31:00,73.6,54.9,29.84,North,1,0.0,0.0,52,0.00,CLR,,0.00,WeatherDisplay:10.37,2013-06-30 01:31:00,
2013-06-29 20:36:00,73.2,55.1,29.84,North,1,0.0,0.0,53,0.00,CLR,,0.00,WeatherDisplay:10.37,2013-06-30 01:36:00,
2013-06-29 20:41:00,73.2,55.1,29.85,North,1,0.0,0.0,53,0.00,CLR,,0.00,WeatherDisplay:10.37,2013-06-30 01:41:00,
2013-06-29 20:46:00,73.0,55.4,29.84,North,1,0.0,0.0,54,0.00,CLR,,0.00,WeatherDisplay:10.37,2013-06-30 01:46:00,
2013-06-29 20:51:00,72.9,55.7,29.84,North,1,0.0,0.0,55,0.00,CLR,,0.00,WeatherDisplay:10.37,2013-06-30 01:51:00,
2013-06-29 20:56:00,72.5,55.4,29.84,North,1,0.0,0.0,55,0.00,CLR,,0.00,WeatherDisplay:10.37,2013-06-30 01:56:00,
2013-06-29 21:01:00,72.3,55.2,29.84,North,1,0.0,0.0,55,0.00,CLR,,0.00,WeatherDisplay:10.37,2013-06-30 02:01:00,
2013-06-29 21:06:00,72.0,55.4,29.84,North,1,0.0,0.0,56,0.00,CLR,,0.00,WeatherDisplay:10.37,2013-06-30 02:06:00,
2013-06-29 21:11:00,72.0,55.4,29.85,North,1,0.0,0.0,56,0.00,CLR,,0.00,WeatherDisplay:10.37,2013-06-30 02:11:00,
2013-06-29 21:16:00,71.6,55.1,29.85,North,1,0.0,0.0,56,0.00,CLR,,0.00,WeatherDisplay:10.37,2013-06-30 02:16:00,
2013-06-29 21:21:00,71.4,54.9,29.86,North,1,0.0,0.0,56,0.00,CLR,,0.00,WeatherDisplay:10.37,2013-06-30 02:21:00,
2013-06-29 21:26:00,71.1,55.1,29.86,North,1,0.0,0.0,57,0.00,CLR,,0.00,WeatherDisplay:10.37,2013-06-30 02:26:00,
2013-06-29 21:31:00,71.1,55.1,29.86,North,1,0.0,0.0,57,0.00,CLR,,0.00,WeatherDisplay:10.37,2013-06-30 02:31:00,
2013-06-29 21:36:00,70.9,54.9,29.87,North,1,0.0,0.0,57,0.00,CLR,,0.00,WeatherDisplay:10.37,2013-06-30 02:36:00,
2013-06-29 21:41:00,70.9,54.9,29.87,North,1,0.0,0.0,57,0.00,CLR,,0.00,WeatherDisplay:10.37,2013-06-30 02:41:00,
2013-06-29 21:46:00,70.5,55.0,29.87,North,1,0.0,0.0,58,0.00,CLR,,0.00,WeatherDisplay:10.37,2013-06-30 02:46:00,
2013-06-29 21:51:00,70.5,55.0,29.87,North,1,0.0,0.0,58,0.00,CLR,,0.00,WeatherDisplay:10.37,2013-06-30 02:51:00,
2013-06-29 21:56:00,70.3,54.9,29.87,North,1,0.0,0.0,58,0.00,CLR,,0.00,WeatherDisplay:10.37,2013-06-30 02:56:00,
2013-06-29 22:01:00,70.2,55.2,29.87,North,1,0.0,0.0,59,0.00,CLR,,0.00,WeatherDisplay:10.37,2013-06-30 03:01:00,
2013-06-29 22:06:00,70.0,55.0,29.87,North,1,0.0,0.0,59,0.00,CLR,,0.00,WeatherDisplay:10.37,2013-06-30 03:06:00,
2013-06-29 22:11:00,69.6,54.7,29.87,North,1,0.0,0.0,59,0.00,CLR,,0.00,WeatherDisplay:10.37,2013-06-30 03:11:00,
2013-06-29 22:16:00,69.3,54.3,29.87,North,1,0.0,0.0,59,0.00,CLR,,0.00,WeatherDisplay:10.37,2013-06-30 03:16:00,
2013-06-29 22:21:00,69.1,54.6,29.87,North,1,0.0,0.0,60,0.00,CLR,,0.00,WeatherDisplay:10.37,2013-06-30 03:21:00,
2013-06-29 22:26:00,68.9,54.4,29.88,North,1,0.0,0.0,60,0.00,CLR,,0.00,WeatherDisplay:10.37,2013-06-30 03:26:00,
2013-06-29 22:31:00,68.7,54.7,29.88,North,1,0.0,0.0,61,0.00,CLR,,0.00,WeatherDisplay:10.37,2013-06-30 03:31:00,
2013-06-29 22:36:00,68.5,54.6,29.87,North,1,0.0,0.0,61,0.00,CLR,,0.00,WeatherDisplay:10.37,2013-06-30 03:36:00,
2013-06-29 22:41:00,68.4,54.4,29.88,North,1,0.0,0.0,61,0.00,CLR,,0.00,WeatherDisplay:10.37,2013-06-30 03:41:00,
2013-06-29 22:46:00,68.2,54.2,29.88,North,1,0.0,0.0,61,0.00,CLR,,0.00,WeatherDisplay:10.37,2013-06-30 03:46:00,
2013-06-29 22:51:00,68.0,54.5,29.88,North,1,0.0,0.0,62,0.00,CLR,,0.00,WeatherDisplay:10.37,2013-06-30 03:51:00,
2013-06-29 22:56:00,67.8,54.3,29.88,North,1,0.0,0.0,62,0.00,CLR,,0.00,WeatherDisplay:10.37,2013-06-30 03:56:00,
2013-06-29 23:01:00,67.6,54.6,29.87,North,1,0.0,0.0,63,0.00,CLR,,0.00,WeatherDisplay:10.37,2013-06-30 04:01:00,
2013-06-29 23:02:00,67.6,54.6,29.87,North,1,0.0,0.0,63,0.00,CLR,,0.00,WeatherDisplay:10.37,2013-06-30 04:02:00,
2013-06-29 23:07:00,67.5,54.4,29.87,North,1,0.0,0.0,63,0.00,CLR,,0.00,WeatherDisplay:10.37,2013-06-30 04:07:00,
2013-06-29 23:12:00,67.3,54.3,29.87,North,1,0.0,0.0,63,0.00,CLR,,0.00,WeatherDisplay:10.37,2013-06-30 04:12:00,
2013-06-29 23:17:00,67.1,54.5,29.87,North,1,0.0,0.0,64,0.00,CLR,,0.00,WeatherDisplay:10.37,2013-06-30 04:17:00,
2013-06-29 23:22:00,66.9,54.3,29.87,North,1,0.0,0.0,64,0.00,CLR,,0.00,WeatherDisplay:10.37,2013-06-30 04:22:00,
2013-06-29 23:27:00,66.9,54.3,29.87,North,1,0.0,0.0,64,0.00,CLR,,0.00,WeatherDisplay:10.37,2013-06-30 04:27:00,
2013-06-29 23:32:00,66.6,54.4,29.87,North,1,0.0,0.0,65,0.00,CLR,,0.00,WeatherDisplay:10.37,2013-06-30 04:32:00,
2013-06-29 23:37:00,66.6,54.4,29.88,North,1,0.0,0.0,65,0.00,CLR,,0.00,WeatherDisplay:10.37,2013-06-30 04:37:00,
2013-06-29 23:42:00,66.4,54.7,29.87,North,1,0.0,0.0,66,0.00,CLR,,0.00,WeatherDisplay:10.37,2013-06-30 04:42:00,
2013-06-29 23:47:00,66.4,55.1,29.88,North,1,0.0,0.0,67,0.00,CLR,,0.00,WeatherDisplay:10.37,2013-06-30 04:47:00,
2013-06-29 23:52:00,66.0,54.7,29.88,North,1,0.0,0.0,67,0.00,CLR,,0.00,WeatherDisplay:10.37,2013-06-30 04:52:00,
2013-06-29 23:57:00,65.8,54.6,29.88,North,1,0.0,0.0,67,0.00,CLR,,0.00,WeatherDisplay:10.37,2013-06-30 04:57:00,